Regional Weather Roundup
Issued by NWS

Home | Current Version | Previous Version | Text Only | Print | Product List | Glossary On
Versions: 1 2 3 4 5 6 7 8 9 10 11 12 13 14 15 16 17 18 19 20 21 22 23 24 25 26 27
000
ASUS45 KPSR 192110
RWRAZ

ARIZONA HOURLY REGIONAL WEATHER ROUNDUP
NATIONAL WEATHER SERVICE PHOENIX AZ
200 PM MST FRI JAN 19 2018

NOTE: FAIR INDICATES FEW OR NO CLOUDS BELOW 12,000 FEET WITH NO
SIGNIFICANT WEATHER AND/OR OBSTRUCTIONS TO VISIBILITY.

AZZ001>003-036-192200-
NORTHWEST ARIZONA

CITY           SKY/WX    TMP DP  RH WIND       PRES   REMARKS
BULLHEAD CITY  MOSUNNY   73  30  20 SW7       29.86F
KINGMAN        SUNNY     67  27  22 SW24G35   29.93F
$$

AZZ004>008-015-016-018-192200-
NORTH CENTRAL ARIZONA

CITY           SKY/WX    TMP DP  RH WIND       PRES   REMARKS
GRAND CANYON   SUNNY     55  22  27 SW21G30   30.02F
WILLIAMS       SUNNY     55  23  28 SW21      30.01F
PRESCOTT       SUNNY     63  25  23 S13G22    30.01F
FLAGSTAFF      SUNNY     51  18  27 SW20      30.06F
PAYSON         SUNNY     57  18  21 VRB7      30.05F
PAGE           SUNNY     51  25  36 VRB5      29.93F
$$

AZZ009>014-017-192200-
NORTHEAST ARIZONA

CITY           SKY/WX    TMP DP  RH WIND       PRES   REMARKS
WINSLOW        SUNNY     67  13  12 E8        29.96F
SAINT JOHNS    SUNNY     64  13  13 NE5       30.00F
WINDOW ROCK    SUNNY     60  10  14 S13G20    30.03F
SHOW LOW       SUNNY     57  12  17 SW22      30.07F
$$

AZZ540-542>544-546-548-192200-
GREATER PHOENIX AREA

CITY           SKY/WX    TMP DP  RH WIND       PRES   REMARKS
PHOENIX        PTSUNNY   72  28  19 SE6       29.92F
BUCKEYE        SUNNY     72  27  18 SE10      29.93F
GLENDALE       MOSUNNY   72  27  18 CALM      29.95F
LUKE AFB       SUNNY     72  26  18 NE3       29.91F
DEER VALLEY    SUNNY     71  24  17 SE8       29.93F
SCOTTSDALE     SUNNY     72  28  19 SE7       29.95F
MESA-FALCON    SUNNY     73  27  17 SE7       29.94F
CHANDLER       SUNNY     73  25  16 CALM      29.94F
$$

AZZ539-553-192200-
SOUTHWEST MARICOPA COUNTY AND PINAL COUNTY

CITY           SKY/WX    TMP DP  RH WIND       PRES   REMARKS
CASA GRANDE    NOT AVBL
GILA BEND      PTSUNNY   75  25  16 N5        29.90F
$$

AZZ503-504-507>509-192200-
SOUTHEAST ARIZONA

CITY           SKY/WX    TMP DP  RH WIND       PRES   REMARKS
TUCSON         SUNNY     77  20  12 NE6       29.98F
DAVIS-MONTHAN  SUNNY     77  20  12 NE8       29.97F
RYAN FIELD     SUNNY     79  18  10 SW7       29.98F
NOGALES        SUNNY     74  18  12 SW10      30.02F
SIERRA VISTA   SUNNY     70  10   9 S5        30.06F
DOUGLAS        SUNNY     67  17  14 VRB6      30.05F
SAFFORD        SUNNY     63  17  17 SE5       30.02F
$$

AZZ532-192200-
SOUTHWEST ARIZONA

CITY           SKY/WX    TMP DP  RH WIND       PRES   REMARKS
YUMA           SUNNY     76  35  22 S7        29.88F
$$

CAZ041-043-047-048-061-525>527-560>570-192200-
SOUTHERN CALIFORNIA

CITY           SKY/WX    TMP DP  RH WIND       PRES   REMARKS
DOWNTOWN L.A.  CLOUDY    62  53  72 CALM      29.96F
L.A. AIRPORT   CLOUDY    61  55  81 SW13      29.96F
SAN DIEGO      PTSUNNY   62  52  69 SW8       29.99F
BURBANK        CLOUDY    61  52  72 S10       29.94F
ONTARIO        PTSUNNY   63  49  60 SW9       29.94F
RIVERSIDE      MOSUNNY   64  51  62 VRB3      29.94F
PALM SPRINGS   SUNNY     71  40  32 E6        29.89F
EL CENTRO NAS  SUNNY     75  40  28 E10       29.87F
IMPERIAL       SUNNY     75  41  29 E10       29.85F
BLYTHE         SUNNY     74  33  22 S10       29.87F
NEEDLES        SUNNY     76  27  16 S5        29.86F
$$

NVZ020-UTZ003-192200-
SOUTHERN NEVADA-UTAH

CITY           SKY/WX    TMP DP  RH WIND       PRES   REMARKS
LAS VEGAS      PTSUNNY   70  34  26 SW17G24   29.81F
SALT LAKE CITY CLOUDY    49  33  54 N14       29.78R
$$

NMZ009-TXZ055-192200-
NEW MEXICO-WEST TEXAS

CITY           SKY/WX    TMP DP  RH WIND       PRES   REMARKS
ALBUQUERQUE    PTSUNNY   52  14  22 CALM      30.03F
EL PASO        MOSUNNY   61  22  22 SW12      30.03F
$$


........................KEY........................
SKY/WX - SKY CONDITION/WEATHER
TMP    - TEMPERATURE IN FAHRENHEIT
DP     - DEW POINT IN FAHRENHEIT
RH     - RELATIVE HUMIDITY IN PERCENT
WIND   - DIRECTION AND SPEED IN MILES PER HOUR (MPH)
VRB    - VARIABLE WIND DIRECTION
PRES   - MEAN SEA LEVEL PRESSURE IN INCHES OF MERCURY
         F - FALLING PRESSURE   R - RISING PRESSURE
         S - STEADY PRESSURE
VSB    - VISIBILITY IN MILES
HX     - HEAT INDEX IN FAHRENHEIT
WCI    - WIND CHILL INDEX IN FAHRENHEIT
TC     - TEMPERATURE IN CELSIUS WHICH IS ALSO KNOWN AS
         TEMPERATURE IN CENTIGRADE
AFB    - AIR FORCE BASE
         LUKE AFB IS LUKE AIR FORCE BASE
         DAVIS-MONTHAN IS DAVIS-MONTHAN AIR FORCE BASE
NAS    - NAVAL AIR STATION
         EL CENTRO NAS IS EL CENTRO NAVAL AIR STATION
N/A    - NOT AVAILABLE





USA.gov is the U.S. government's official web portal to all federal, state and local government web resources and services.